FW1477 Weather Reports


time (UTC)temp
F
wind
direction
speed
knots
gust
knots
rain 1hr
in
rain 24hr
in
rain mn
in
humidity
%
barometer
mb
20260503215017 84 0.0 0.0 0.00 0.00 0.00 13 1017.9
20260503214017 84 0.0 0.0 0.00 0.00 0.00 14 1018.2
20260503213058 83 0.0 0.0 0.00 0.00 0.00 15 1018.4
20260503212037 83 0.0 0.0 0.00 0.00 0.00 14 1018.7
20260503211018 83 0.0 0.0 0.00 0.00 0.00 14 1018.9
20260503210017 83 0.0 0.0 0.00 0.00 0.00 14 1019.2
20260503205017 82 0.0 0.0 0.00 0.00 0.00 14 1019.0
20260503204037 83 0.0 0.0 0.00 0.00 0.00 13 1019.5
20260503203037 82 0.0 0.0 0.00 0.00 0.00 13 1019.4
20260503202027 81 0.0 0.0 0.00 0.00 0.00 14 1019.7
20260503201017 80 0.0 0.0 0.00 0.00 0.00 15 1019.4
20260503200016 79 0.0 0.0 0.00 0.00 0.00 15 1019.6
20260503195017 79 0.0 0.0 0.00 0.00 0.00 16 1019.9
20260503194038 79 0.0 0.0 0.00 0.00 0.00 16 1020.1
20260503193017 79 0.0 0.0 0.00 0.00 0.00 17 1020.2
20260503191021 77 0.0 0.0 0.00 0.00 0.00 18 1020.0
20260503190016 77 0.0 0.0 0.00 0.00 0.00 19 1020.4
20260503185021 77 0.0 0.0 0.00 0.00 0.00 19 1020.2
20260503184016 77 0.0 0.0 0.00 0.00 0.00 21 1020.9
20260503183017 76 0.0 0.0 0.00 0.00 0.00 23 1020.8
20260503182016 75 0.0 0.0 0.00 0.00 0.00 24 1021.0
20260503181016 74 0.0 0.0 0.00 0.00 0.00 24 1020.7
20260503180037 73 0.0 0.0 0.00 0.00 0.00 26 1020.9
20260503175016 73 0.0 0.0 0.00 0.00 0.00 27 1021.2
20260503174016 72 0.0 0.0 0.00 0.00 0.00 28 1020.9
20260503171016 69 0.0 0.0 0.00 0.00 0.00 35 1021.2
20260503131036 54 225 5.2 8.7 0.00 0.00 0.00 63 1016.6
20260503081017 60 248 5.2 8.7 0.00 0.00 0.00 66 1017.3
20260503072016 61 248 4.3 7.8 0.00 0.00 0.00 64 1018.2
20260503071016 62 248 3.5 7.0 0.00 0.00 0.00 63 1018.4
20260503055017 64 248 3.5 7.0 0.00 0.00 0.00 60 1018.7
20260503054017 64 248 4.3 7.0 0.00 0.00 0.00 59 1018.6
20260503053017 65 248 5.2 10.4 0.00 0.00 0.00 59 1018.7
20260503052017 65 225 3.5 6.1 0.00 0.00 0.00 58 1019.2
20260503051016 65 225 1.7 6.1 0.00 0.00 0.00 57 1019.1
20260503050037 65 225 0.9 6.1 0.00 0.00 0.00 57 1018.8
20260503045037 66 225 2.6 8.7 0.00 0.00 0.00 56 1018.4
20260503044016 66 248 3.5 10.4 0.00 0.00 0.00 56 1018.3
20260503043017 66 225 6.1 13.0 0.00 0.00 0.00 54 1017.8
20260503042016 67 248 5.2 13.9 0.00 0.00 0.00 53 1018.1
20260503041016 67 248 10.4 20.0 0.00 0.00 0.00 52 1017.9
20260503040037 67 248 12.2 23.5 0.00 0.00 0.00 51 1017.8
20260503035016 68 248 9.6 18.2 0.00 0.00 0.00 49 1017.5
20260503034016 68 248 9.6 17.4 0.00 0.00 0.00 47 1017.0
20260503033018 69 248 10.4 17.4 0.00 0.00 0.00 45 1017.2
20260503032016 69 248 9.6 19.1 0.00 0.00 0.00 43 1017.0
20260503031017 70 225 12.2 24.3 0.00 0.00 0.00 41 1016.8
20260503030037 70 225 11.3 23.5 0.00 0.00 0.00 40 1016.7
20260503025016 71 248 12.2 20.9 0.00 0.00 0.00 36 1016.6
20260503024016 72 248 10.4 20.9 0.00 0.00 0.00 33 1016.4
20260503023016 72 225 7.8 18.2 0.00 0.00 0.00 30 1016.5
20260503022017 73 0.0 0.0 0.00 0.00 0.00 29 1016.8
20260503021016 73 0.0 0.0 0.00 0.00 0.00 27 1016.7
20260503020016 74 0.0 0.0 0.00 0.00 0.00 26 1016.6
20260503015016 74 0.0 0.0 0.00 0.00 0.00 25 1016.3
20260503014057 75 0.0 0.0 0.00 0.00 0.00 25 1016.8
20260503013016 75 0.0 0.0 0.00 0.00 0.00 24 1016.6
20260503012036 76 0.0 0.0 0.00 0.00 0.00 23 1016.5
20260503011016 77 0.0 0.0 0.00 0.00 0.00 21 1016.8
20260503010017 78 0.0 0.0 0.00 0.00 0.00 19 1016.7
20260503005016 79 0.0 0.0 0.00 0.00 0.00 18 1016.9
20260503004036 79 0.0 0.0 0.00 0.00 0.00 16 1017.0
20260503003016 80 0.0 0.0 0.00 0.00 0.00 15 1017.0
20260503002016 80 0.0 0.0 0.00 0.00 0.00 14 1016.8
20260503001016 81 0.0 0.0 0.00 0.00 0.00 12 1017.1
20260503000016 81 0.0 0.0 0.00 0.00 0.00 13 1016.7
20260502235016 81 0.0 0.0 0.00 0.00 0.00 12 1016.7
20260502234056 82 0.0 0.0 0.00 0.00 0.00 9 1016.5
20260502233016 83 0.0 0.0 0.00 0.00 0.00 10 1017.2
20260502232015 83 0.0 0.0 0.00 0.00 0.00 8 1016.6
20260502231015 82 0.0 0.0 0.00 0.00 0.00 8 1016.5
20260502230016 83 0.0 0.0 0.00 0.00 0.00 7 1017.0
20260502225016 84 0.0 0.0 0.00 0.00 0.00 8 1017.1
20260502224015 83 0.0 0.0 0.00 0.00 0.00 8 1017.0
20260502223015 84 0.0 0.0 0.00 0.00 0.00 10 1017.1
20260502222016 84 0.0 0.0 0.00 0.00 0.00 8 1017.1
20260502221016 84 0.0 0.0 0.00 0.00 0.00 7 1017.1
20260502220037 84 0.0 0.0 0.00 0.00 0.00 8 1017.2